Information on these data can be found in provided Readme document
Contact Info: Zachary Fasnacht (zachary.fasnacht@ssaihq.com); Nickolay Krotkov (nickolay.a.krotkov@nasa.gov); Lok Lamsal (lok.lamsal@nasa.gov)

FillValue: -999.
ScaleFactor: 1e15
Units: molecules/cm^2

Date(yyyy-mm-dd),City,Country,LonCenter,LatCenter,BoundingCoordinates,Median,Q1,Q3,Mean,Baseline_Median,Baseline_Q1,Baseline_Q3,Baseline_Mean,NumGoodSamples,NumTotalSamples
2015-01-01,Plymouth,England,-4.0833,50.4167,[-4.5833 49.9167 -3.5833000000000004 50.9167],1.456,0.769,2.215,1.457,1.308,0.626,1.995,1.293,194.0,652.0
2015-01-02,Plymouth,England,-4.0833,50.4167,[-4.5833 49.9167 -3.5833000000000004 50.9167],1.537,0.811,2.264,1.489,1.305,0.65,1.985,1.288,172.0,651.0
2015-01-03,Plymouth,England,-4.0833,50.4167,[-4.5833 49.9167 -3.5833000000000004 50.9167],1.537,0.811,2.264,1.491,1.309,0.645,1.986,1.287,175.0,655.0
2015-01-04,Plymouth,England,-4.0833,50.4167,[-4.5833 49.9167 -3.5833000000000004 50.9167],1.535,0.725,2.264,1.482,1.235,0.549,1.908,1.21,171.0,648.0
2015-01-05,Plymouth,England,-4.0833,50.4167,[-4.5833 49.9167 -3.5833000000000004 50.9167],1.456,0.667,2.31,1.456,1.136,0.454,1.911,1.158,136.0,648.0
2015-01-06,Plymouth,England,-4.0833,50.4167,[-4.5833 49.9167 -3.5833000000000004 50.9167],1.124,0.295,1.993,1.207,1.013,0.292,1.712,1.039,132.0,638.0
2015-01-07,Plymouth,England,-4.0833,50.4167,[-4.5833 49.9167 -3.5833000000000004 50.9167],0.667,0.054,1.306,0.708,0.929,0.239,1.541,0.913,98.0,643.0
2015-01-08,Plymouth,England,-4.0833,50.4167,[-4.5833 49.9167 -3.5833000000000004 50.9167],0.667,-0.07,1.405,0.703,0.907,0.188,1.525,0.888,122.0,648.0
2015-01-09,Plymouth,England,-4.0833,50.4167,[-4.5833 49.9167 -3.5833000000000004 50.9167],0.667,-0.07,1.423,0.709,0.937,0.188,1.519,0.911,124.0,648.0
2015-01-10,Plymouth,England,-4.0833,50.4167,[-4.5833 49.9167 -3.5833000000000004 50.9167],0.667,-0.07,1.423,0.709,0.87,0.186,1.557,0.896,124.0,610.0
2015-01-11,Plymouth,England,-4.0833,50.4167,[-4.5833 49.9167 -3.5833000000000004 50.9167],0.667,-0.07,1.423,0.709,0.962,0.208,1.853,1.04,124.0,610.0
2015-01-12,Plymouth,England,-4.0833,50.4167,[-4.5833 49.9167 -3.5833000000000004 50.9167],0.769,0.055,1.444,0.753,1.097,0.295,1.883,1.143,134.0,613.0
2015-01-13,Plymouth,England,-4.0833,50.4167,[-4.5833 49.9167 -3.5833000000000004 50.9167],0.769,0.058,1.444,0.757,1.301,0.41,2.279,1.402,141.0,602.0
2015-01-14,Plymouth,England,-4.0833,50.4167,[-4.5833 49.9167 -3.5833000000000004 50.9167],0.481,-0.108,1.219,0.569,1.318,0.458,2.318,1.455,97.0,600.0
2015-01-15,Plymouth,England,-4.0833,50.4167,[-4.5833 49.9167 -3.5833000000000004 50.9167],0.74,0.054,1.444,0.932,1.301,0.429,2.27,1.451,109.0,602.0
2015-01-16,Plymouth,England,-4.0833,50.4167,[-4.5833 49.9167 -3.5833000000000004 50.9167],1.227,0.234,2.529,1.34,1.403,0.462,2.498,1.535,80.0,604.0
2015-01-17,Plymouth,England,-4.0833,50.4167,[-4.5833 49.9167 -3.5833000000000004 50.9167],0.981,0.275,1.782,1.147,1.34,0.457,2.338,1.484,118.0,609.0
2015-01-18,Plymouth,England,-4.0833,50.4167,[-4.5833 49.9167 -3.5833000000000004 50.9167],0.981,0.275,1.782,1.137,1.295,0.42,2.324,1.445,115.0,607.0
2015-01-19,Plymouth,England,-4.0833,50.4167,[-4.5833 49.9167 -3.5833000000000004 50.9167],0.981,0.275,1.782,1.137,1.425,0.445,2.352,1.533,115.0,611.0
2015-01-20,Plymouth,England,-4.0833,50.4167,[-4.5833 49.9167 -3.5833000000000004 50.9167],0.981,0.275,1.782,1.137,1.425,0.446,2.351,1.53,115.0,602.0
2015-01-21,Plymouth,England,-4.0833,50.4167,[-4.5833 49.9167 -3.5833000000000004 50.9167],0.982,0.303,1.804,1.204,1.441,0.538,2.365,1.607,102.0,600.0
2015-01-22,Plymouth,England,-4.0833,50.4167,[-4.5833 49.9167 -3.5833000000000004 50.9167],1.015,0.426,1.804,1.245,1.458,0.581,2.383,1.632,98.0,591.0
2015-01-23,Plymouth,England,-4.0833,50.4167,[-4.5833 49.9167 -3.5833000000000004 50.9167],1.111,0.477,2.011,1.415,1.564,0.611,2.524,1.716,74.0,595.0
2015-01-24,Plymouth,England,-4.0833,50.4167,[-4.5833 49.9167 -3.5833000000000004 50.9167],1.077,0.474,1.939,1.375,1.576,0.615,2.506,1.727,75.0,602.0
2015-01-25,Plymouth,England,-4.0833,50.4167,[-4.5833 49.9167 -3.5833000000000004 50.9167],1.077,0.474,1.939,1.375,1.522,0.68,2.5,1.711,75.0,644.0
2015-01-26,Plymouth,England,-4.0833,50.4167,[-4.5833 49.9167 -3.5833000000000004 50.9167],1.077,0.477,2.011,1.409,1.288,0.56,2.345,1.557,77.0,649.0
2015-01-27,Plymouth,England,-4.0833,50.4167,[-4.5833 49.9167 -3.5833000000000004 50.9167],1.03,0.451,2.529,1.516,1.094,0.483,2.583,1.511,67.0,649.0
2015-01-28,Plymouth,England,-4.0833,50.4167,[-4.5833 49.9167 -3.5833000000000004 50.9167],1.111,0.568,2.529,1.528,0.948,0.406,1.836,1.078,70.0,654.0
2015-01-29,Plymouth,England,-4.0833,50.4167,[-4.5833 49.9167 -3.5833000000000004 50.9167],1.111,0.568,2.529,1.528,1.03,0.492,1.867,1.129,70.0,642.0
2015-01-30,Plymouth,England,-4.0833,50.4167,[-4.5833 49.9167 -3.5833000000000004 50.9167],0.981,0.477,1.633,1.193,1.038,0.489,1.676,1.071,62.0,636.0
2015-01-31,Plymouth,England,-4.0833,50.4167,[-4.5833 49.9167 -3.5833000000000004 50.9167],0.99,0.477,1.882,1.244,1.175,0.557,1.909,1.194,82.0,640.0
2015-02-01,Plymouth,England,-4.0833,50.4167,[-4.5833 49.9167 -3.5833000000000004 50.9167],1.689,1.302,2.426,1.875,1.348,0.755,2.037,1.338,55.0,643.0
2015-02-02,Plymouth,England,-4.0833,50.4167,[-4.5833 49.9167 -3.5833000000000004 50.9167],1.956,1.413,2.801,2.198,1.583,0.915,2.322,1.607,93.0,648.0
2015-02-03,Plymouth,England,-4.0833,50.4167,[-4.5833 49.9167 -3.5833000000000004 50.9167],1.956,1.413,2.801,2.198,1.507,0.883,2.212,1.549,93.0,646.0
2015-02-04,Plymouth,England,-4.0833,50.4167,[-4.5833 49.9167 -3.5833000000000004 50.9167],1.956,1.413,2.801,2.198,1.64,0.971,2.304,1.664,93.0,650.0
2015-02-05,Plymouth,England,-4.0833,50.4167,[-4.5833 49.9167 -3.5833000000000004 50.9167],1.956,1.413,2.801,2.198,1.711,0.983,2.373,1.715,93.0,644.0
2015-02-06,Plymouth,England,-4.0833,50.4167,[-4.5833 49.9167 -3.5833000000000004 50.9167],1.976,1.452,2.801,2.226,1.732,0.979,2.486,1.763,91.0,644.0
2015-02-07,Plymouth,England,-4.0833,50.4167,[-4.5833 49.9167 -3.5833000000000004 50.9167],1.956,1.413,2.801,2.223,1.746,0.976,2.506,1.791,99.0,634.0
2015-02-08,Plymouth,England,-4.0833,50.4167,[-4.5833 49.9167 -3.5833000000000004 50.9167],1.914,1.509,2.659,2.224,1.689,0.971,2.453,1.771,102.0,639.0
2015-02-09,Plymouth,England,-4.0833,50.4167,[-4.5833 49.9167 -3.5833000000000004 50.9167],1.876,1.324,2.626,2.033,1.763,1.008,2.571,1.816,123.0,646.0
2015-02-10,Plymouth,England,-4.0833,50.4167,[-4.5833 49.9167 -3.5833000000000004 50.9167],1.876,1.324,2.574,2.026,1.837,1.053,2.645,1.852,123.0,645.0
2015-02-11,Plymouth,England,-4.0833,50.4167,[-4.5833 49.9167 -3.5833000000000004 50.9167],1.876,1.324,2.574,2.026,1.825,1.047,2.525,1.824,123.0,606.0
2015-02-12,Plymouth,England,-4.0833,50.4167,[-4.5833 49.9167 -3.5833000000000004 50.9167],1.914,1.413,2.801,2.089,1.853,1.158,2.702,1.892,113.0,606.0
2015-02-13,Plymouth,England,-4.0833,50.4167,[-4.5833 49.9167 -3.5833000000000004 50.9167],1.914,1.413,2.801,2.089,1.816,1.155,2.643,1.887,113.0,611.0
2015-02-14,Plymouth,England,-4.0833,50.4167,[-4.5833 49.9167 -3.5833000000000004 50.9167],1.914,1.306,2.801,2.021,1.857,1.175,2.629,1.894,131.0,601.0
2015-02-15,Plymouth,England,-4.0833,50.4167,[-4.5833 49.9167 -3.5833000000000004 50.9167],1.914,1.324,2.574,2.017,1.85,1.088,2.613,1.884,108.0,593.0
2015-02-16,Plymouth,England,-4.0833,50.4167,[-4.5833 49.9167 -3.5833000000000004 50.9167],1.811,0.848,3.173,1.991,1.853,1.043,2.749,1.905,105.0,597.0
2015-02-17,Plymouth,England,-4.0833,50.4167,[-4.5833 49.9167 -3.5833000000000004 50.9167],1.121,0.47,1.917,1.317,1.869,1.114,2.876,2.066,78.0,601.0
2015-02-18,Plymouth,England,-4.0833,50.4167,[-4.5833 49.9167 -3.5833000000000004 50.9167],1.121,0.47,1.917,1.337,2.003,1.261,2.895,2.187,82.0,605.0
2015-02-19,Plymouth,England,-4.0833,50.4167,[-4.5833 49.9167 -3.5833000000000004 50.9167],1.121,0.47,1.917,1.337,2.113,1.227,3.199,2.366,82.0,603.0
2015-02-20,Plymouth,England,-4.0833,50.4167,[-4.5833 49.9167 -3.5833000000000004 50.9167],1.142,0.47,2.243,1.35,2.051,1.226,3.154,2.326,98.0,605.0
2015-02-21,Plymouth,England,-4.0833,50.4167,[-4.5833 49.9167 -3.5833000000000004 50.9167],1.142,0.47,2.243,1.35,1.964,1.225,3.115,2.307,98.0,600.0
2015-02-22,Plymouth,England,-4.0833,50.4167,[-4.5833 49.9167 -3.5833000000000004 50.9167],1.149,0.47,1.995,1.325,1.957,1.21,3.06,2.285,95.0,601.0
2015-02-23,Plymouth,England,-4.0833,50.4167,[-4.5833 49.9167 -3.5833000000000004 50.9167],1.121,0.378,2.048,1.233,1.986,1.247,3.153,2.29,109.0,591.0
2015-02-24,Plymouth,England,-4.0833,50.4167,[-4.5833 49.9167 -3.5833000000000004 50.9167],1.121,0.47,1.786,1.255,1.981,1.277,3.162,2.338,101.0,595.0
2015-02-25,Plymouth,England,-4.0833,50.4167,[-4.5833 49.9167 -3.5833000000000004 50.9167],1.121,0.47,1.786,1.18,1.99,1.247,3.105,2.287,138.0,601.0
2015-02-26,Plymouth,England,-4.0833,50.4167,[-4.5833 49.9167 -3.5833000000000004 50.9167],1.121,0.47,1.786,1.18,2.06,1.267,3.204,2.34,138.0,643.0
2015-02-27,Plymouth,England,-4.0833,50.4167,[-4.5833 49.9167 -3.5833000000000004 50.9167],1.213,0.521,1.893,1.301,1.967,1.136,3.028,2.233,173.0,647.0
2015-02-28,Plymouth,England,-4.0833,50.4167,[-4.5833 49.9167 -3.5833000000000004 50.9167],1.213,0.521,1.893,1.301,1.864,1.114,2.945,2.203,173.0,646.0
2015-03-01,Plymouth,England,-4.0833,50.4167,[-4.5833 49.9167 -3.5833000000000004 50.9167],1.229,0.533,1.84,1.306,1.98,1.086,3.016,2.216,151.0,651.0
2015-03-02,Plymouth,England,-4.0833,50.4167,[-4.5833 49.9167 -3.5833000000000004 50.9167],1.229,0.533,1.84,1.306,1.999,1.032,3.029,2.219,151.0,643.0
2015-03-03,Plymouth,England,-4.0833,50.4167,[-4.5833 49.9167 -3.5833000000000004 50.9167],1.164,0.521,1.84,1.278,1.877,1.037,2.834,2.136,146.0,638.0
2015-03-04,Plymouth,England,-4.0833,50.4167,[-4.5833 49.9167 -3.5833000000000004 50.9167],1.253,0.521,1.894,1.298,1.603,0.932,2.446,1.878,135.0,638.0
2015-03-05,Plymouth,England,-4.0833,50.4167,[-4.5833 49.9167 -3.5833000000000004 50.9167],1.253,0.52,1.893,1.287,1.518,0.792,2.46,1.765,131.0,642.0
2015-03-06,Plymouth,England,-4.0833,50.4167,[-4.5833 49.9167 -3.5833000000000004 50.9167],1.253,0.52,1.893,1.287,1.419,0.623,2.103,1.452,131.0,647.0
2015-03-07,Plymouth,England,-4.0833,50.4167,[-4.5833 49.9167 -3.5833000000000004 50.9167],1.253,0.521,1.809,1.27,1.411,0.506,2.148,1.503,115.0,646.0
2015-03-08,Plymouth,England,-4.0833,50.4167,[-4.5833 49.9167 -3.5833000000000004 50.9167],1.253,0.521,1.809,1.27,1.521,0.492,2.256,1.471,115.0,650.0
2015-03-09,Plymouth,England,-4.0833,50.4167,[-4.5833 49.9167 -3.5833000000000004 50.9167],1.253,0.521,1.84,1.254,1.666,0.556,2.566,1.723,110.0,645.0
2015-03-10,Plymouth,England,-4.0833,50.4167,[-4.5833 49.9167 -3.5833000000000004 50.9167],1.335,0.578,1.893,1.327,1.647,0.552,2.605,1.71,92.0,646.0
2015-03-11,Plymouth,England,-4.0833,50.4167,[-4.5833 49.9167 -3.5833000000000004 50.9167],1.893,1.071,2.996,2.09,1.968,0.722,3.338,2.129,114.0,635.0
2015-03-12,Plymouth,England,-4.0833,50.4167,[-4.5833 49.9167 -3.5833000000000004 50.9167],2.419,1.524,3.512,2.549,2.035,0.818,3.477,2.227,79.0,636.0
2015-03-13,Plymouth,England,-4.0833,50.4167,[-4.5833 49.9167 -3.5833000000000004 50.9167],2.97,1.588,4.16,3.171,2.26,0.974,3.66,2.466,112.0,642.0
2015-03-14,Plymouth,England,-4.0833,50.4167,[-4.5833 49.9167 -3.5833000000000004 50.9167],3.593,2.411,5.143,3.809,2.326,1.274,3.853,2.579,77.0,642.0
2015-03-15,Plymouth,England,-4.0833,50.4167,[-4.5833 49.9167 -3.5833000000000004 50.9167],3.593,2.411,5.143,3.809,2.193,1.175,3.77,2.514,77.0,604.0
2015-03-16,Plymouth,England,-4.0833,50.4167,[-4.5833 49.9167 -3.5833000000000004 50.9167],3.593,2.411,5.143,3.809,2.197,1.175,3.771,2.515,77.0,604.0
2015-03-17,Plymouth,England,-4.0833,50.4167,[-4.5833 49.9167 -3.5833000000000004 50.9167],3.097,2.089,5.125,3.5,2.115,1.072,3.799,2.422,84.0,609.0
2015-03-18,Plymouth,England,-4.0833,50.4167,[-4.5833 49.9167 -3.5833000000000004 50.9167],2.996,1.549,4.309,3.285,2.138,1.032,3.65,2.494,107.0,598.0
2015-03-19,Plymouth,England,-4.0833,50.4167,[-4.5833 49.9167 -3.5833000000000004 50.9167],2.515,1.226,4.16,2.937,2.166,1.07,3.596,2.457,114.0,596.0
2015-03-20,Plymouth,England,-4.0833,50.4167,[-4.5833 49.9167 -3.5833000000000004 50.9167],2.515,1.226,4.16,2.937,2.201,1.101,3.616,2.491,114.0,608.0
2015-03-21,Plymouth,England,-4.0833,50.4167,[-4.5833 49.9167 -3.5833000000000004 50.9167],2.515,1.226,4.16,2.937,2.183,1.13,3.515,2.453,114.0,623.0
2015-03-22,Plymouth,England,-4.0833,50.4167,[-4.5833 49.9167 -3.5833000000000004 50.9167],2.515,1.226,4.16,2.937,2.337,1.25,3.527,2.451,114.0,629.0
2015-03-23,Plymouth,England,-4.0833,50.4167,[-4.5833 49.9167 -3.5833000000000004 50.9167],2.515,1.226,4.16,2.937,2.369,1.22,3.459,2.426,114.0,625.0
2015-03-24,Plymouth,England,-4.0833,50.4167,[-4.5833 49.9167 -3.5833000000000004 50.9167],2.411,0.759,4.037,2.71,2.202,1.001,3.282,2.232,126.0,628.0
2015-03-25,Plymouth,England,-4.0833,50.4167,[-4.5833 49.9167 -3.5833000000000004 50.9167],2.419,0.759,4.095,2.72,2.163,1.035,3.393,2.294,124.0,623.0
2015-03-26,Plymouth,England,-4.0833,50.4167,[-4.5833 49.9167 -3.5833000000000004 50.9167],1.254,0.444,4.309,2.37,1.748,0.906,2.985,1.978,89.0,628.0
2015-03-27,Plymouth,England,-4.0833,50.4167,[-4.5833 49.9167 -3.5833000000000004 50.9167],1.254,0.433,4.662,2.415,1.78,0.909,3.037,1.981,85.0,620.0
2015-03-28,Plymouth,England,-4.0833,50.4167,[-4.5833 49.9167 -3.5833000000000004 50.9167],0.456,0.338,1.186,0.713,1.737,0.933,2.568,1.778,52.0,623.0
2015-03-29,Plymouth,England,-4.0833,50.4167,[-4.5833 49.9167 -3.5833000000000004 50.9167],0.557,0.338,1.548,0.999,1.71,0.888,2.507,1.77,65.0,628.0
2015-03-30,Plymouth,England,-4.0833,50.4167,[-4.5833 49.9167 -3.5833000000000004 50.9167],0.557,0.338,1.548,0.999,1.791,0.992,2.621,1.851,65.0,670.0
2015-03-31,Plymouth,England,-4.0833,50.4167,[-4.5833 49.9167 -3.5833000000000004 50.9167],1.05,0.456,1.849,1.271,1.82,0.973,2.591,1.848,95.0,671.0
2015-04-01,Plymouth,England,-4.0833,50.4167,[-4.5833 49.9167 -3.5833000000000004 50.9167],1.254,0.524,2.016,1.385,1.823,0.957,2.615,1.885,88.0,670.0
2015-04-02,Plymouth,England,-4.0833,50.4167,[-4.5833 49.9167 -3.5833000000000004 50.9167],1.54,0.75,2.575,1.814,1.846,1.008,2.627,1.919,76.0,673.0
2015-04-03,Plymouth,England,-4.0833,50.4167,[-4.5833 49.9167 -3.5833000000000004 50.9167],1.769,1.04,2.597,1.913,1.887,1.098,2.654,1.959,75.0,663.0
2015-04-04,Plymouth,England,-4.0833,50.4167,[-4.5833 49.9167 -3.5833000000000004 50.9167],1.54,0.989,2.575,1.752,1.814,1.081,2.606,1.905,86.0,647.0
2015-04-05,Plymouth,England,-4.0833,50.4167,[-4.5833 49.9167 -3.5833000000000004 50.9167],1.659,0.989,2.575,1.787,1.797,1.055,2.596,1.885,100.0,639.0
2015-04-06,Plymouth,England,-4.0833,50.4167,[-4.5833 49.9167 -3.5833000000000004 50.9167],1.688,0.989,2.487,1.768,1.784,1.001,2.577,1.883,105.0,643.0
2015-04-07,Plymouth,England,-4.0833,50.4167,[-4.5833 49.9167 -3.5833000000000004 50.9167],1.688,1.015,2.388,1.8,1.757,1.015,2.607,1.885,140.0,669.0
2015-04-08,Plymouth,England,-4.0833,50.4167,[-4.5833 49.9167 -3.5833000000000004 50.9167],1.729,1.05,2.531,1.893,1.734,0.956,2.623,1.881,128.0,693.0
2015-04-09,Plymouth,England,-4.0833,50.4167,[-4.5833 49.9167 -3.5833000000000004 50.9167],1.806,1.079,2.597,2.023,1.726,0.967,2.611,1.853,151.0,734.0
2015-04-10,Plymouth,England,-4.0833,50.4167,[-4.5833 49.9167 -3.5833000000000004 50.9167],1.806,1.079,2.597,2.023,1.723,0.965,2.628,1.86,151.0,724.0
2015-04-11,Plymouth,England,-4.0833,50.4167,[-4.5833 49.9167 -3.5833000000000004 50.9167],1.769,1.096,2.596,1.974,1.823,1.01,2.73,1.909,162.0,727.0
2015-04-12,Plymouth,England,-4.0833,50.4167,[-4.5833 49.9167 -3.5833000000000004 50.9167],1.688,1.015,2.418,1.815,1.699,0.952,2.622,1.821,196.0,720.0
2015-04-13,Plymouth,England,-4.0833,50.4167,[-4.5833 49.9167 -3.5833000000000004 50.9167],1.692,1.051,2.531,1.94,1.736,0.991,2.582,1.878,201.0,723.0
2015-04-14,Plymouth,England,-4.0833,50.4167,[-4.5833 49.9167 -3.5833000000000004 50.9167],1.746,1.066,2.575,1.961,1.744,1.0,2.575,1.879,241.0,729.0
2015-04-15,Plymouth,England,-4.0833,50.4167,[-4.5833 49.9167 -3.5833000000000004 50.9167],1.748,1.079,2.666,2.006,1.748,0.977,2.624,1.892,213.0,731.0
2015-04-16,Plymouth,England,-4.0833,50.4167,[-4.5833 49.9167 -3.5833000000000004 50.9167],1.748,1.079,2.666,2.006,1.77,0.972,2.665,1.907,213.0,693.0
2015-04-17,Plymouth,England,-4.0833,50.4167,[-4.5833 49.9167 -3.5833000000000004 50.9167],1.688,1.044,2.418,1.881,1.782,0.954,2.545,1.851,199.0,723.0
2015-04-18,Plymouth,England,-4.0833,50.4167,[-4.5833 49.9167 -3.5833000000000004 50.9167],1.688,1.057,2.418,1.928,1.699,0.862,2.513,1.795,193.0,725.0
2015-04-19,Plymouth,England,-4.0833,50.4167,[-4.5833 49.9167 -3.5833000000000004 50.9167],1.746,1.096,2.514,2.013,1.683,0.786,2.58,1.802,182.0,742.0
2015-04-20,Plymouth,England,-4.0833,50.4167,[-4.5833 49.9167 -3.5833000000000004 50.9167],1.746,1.096,2.64,2.006,1.669,0.787,2.641,1.794,168.0,772.0
2015-04-21,Plymouth,England,-4.0833,50.4167,[-4.5833 49.9167 -3.5833000000000004 50.9167],1.671,1.015,2.556,1.903,1.605,0.776,2.59,1.737,193.0,799.0
2015-04-22,Plymouth,England,-4.0833,50.4167,[-4.5833 49.9167 -3.5833000000000004 50.9167],1.446,0.872,2.418,1.799,1.549,0.716,2.547,1.705,167.0,795.0
2015-04-23,Plymouth,England,-4.0833,50.4167,[-4.5833 49.9167 -3.5833000000000004 50.9167],1.402,0.745,2.418,1.711,1.552,0.701,2.538,1.695,202.0,775.0
2015-04-24,Plymouth,England,-4.0833,50.4167,[-4.5833 49.9167 -3.5833000000000004 50.9167],1.283,0.669,2.214,1.576,1.565,0.698,2.457,1.68,179.0,735.0
2015-04-25,Plymouth,England,-4.0833,50.4167,[-4.5833 49.9167 -3.5833000000000004 50.9167],1.283,0.669,2.214,1.576,1.567,0.72,2.476,1.697,179.0,737.0
2015-04-26,Plymouth,England,-4.0833,50.4167,[-4.5833 49.9167 -3.5833000000000004 50.9167],1.283,0.658,2.18,1.576,1.505,0.625,2.373,1.596,168.0,730.0
2015-04-27,Plymouth,England,-4.0833,50.4167,[-4.5833 49.9167 -3.5833000000000004 50.9167],1.436,0.668,2.673,1.728,1.544,0.66,2.481,1.652,134.0,730.0
2015-04-28,Plymouth,England,-4.0833,50.4167,[-4.5833 49.9167 -3.5833000000000004 50.9167],1.158,0.504,2.142,1.395,1.253,0.6,2.227,1.481,124.0,724.0
2015-04-29,Plymouth,England,-4.0833,50.4167,[-4.5833 49.9167 -3.5833000000000004 50.9167],0.691,0.336,1.801,1.003,1.068,0.49,2.032,1.259,89.0,729.0
2015-04-30,Plymouth,England,-4.0833,50.4167,[-4.5833 49.9167 -3.5833000000000004 50.9167],0.691,0.286,1.798,0.946,1.056,0.502,1.922,1.2,97.0,735.0
2015-05-01,Plymouth,England,-4.0833,50.4167,[-4.5833 49.9167 -3.5833000000000004 50.9167],0.691,0.286,1.798,0.946,0.974,0.457,1.817,1.155,97.0,776.0
2015-05-02,Plymouth,England,-4.0833,50.4167,[-4.5833 49.9167 -3.5833000000000004 50.9167],0.684,0.286,1.448,0.906,0.937,0.445,1.663,1.079,124.0,752.0
2015-05-03,Plymouth,England,-4.0833,50.4167,[-4.5833 49.9167 -3.5833000000000004 50.9167],0.684,0.286,1.448,0.906,0.965,0.502,1.639,1.084,124.0,751.0
2015-05-04,Plymouth,England,-4.0833,50.4167,[-4.5833 49.9167 -3.5833000000000004 50.9167],0.611,0.203,1.158,0.813,0.975,0.475,1.565,1.046,139.0,728.0
2015-05-05,Plymouth,England,-4.0833,50.4167,[-4.5833 49.9167 -3.5833000000000004 50.9167],0.657,0.211,1.158,0.819,0.975,0.471,1.545,1.04,159.0,681.0
2015-05-06,Plymouth,England,-4.0833,50.4167,[-4.5833 49.9167 -3.5833000000000004 50.9167],0.611,0.211,1.137,0.784,1.018,0.521,1.638,1.081,133.0,648.0
2015-05-07,Plymouth,England,-4.0833,50.4167,[-4.5833 49.9167 -3.5833000000000004 50.9167],0.668,0.136,1.656,0.849,1.019,0.498,1.736,1.086,148.0,637.0
2015-05-08,Plymouth,England,-4.0833,50.4167,[-4.5833 49.9167 -3.5833000000000004 50.9167],0.604,0.086,1.274,0.675,1.007,0.465,1.642,1.03,117.0,638.0
2015-05-09,Plymouth,England,-4.0833,50.4167,[-4.5833 49.9167 -3.5833000000000004 50.9167],0.544,-0.003,1.059,0.594,0.925,0.377,1.516,0.932,156.0,662.0
2015-05-10,Plymouth,England,-4.0833,50.4167,[-4.5833 49.9167 -3.5833000000000004 50.9167],0.544,-0.003,1.059,0.594,0.904,0.374,1.496,0.911,156.0,690.0
2015-05-11,Plymouth,England,-4.0833,50.4167,[-4.5833 49.9167 -3.5833000000000004 50.9167],0.601,-0.046,1.153,0.632,0.92,0.362,1.519,0.92,177.0,730.0
2015-05-12,Plymouth,England,-4.0833,50.4167,[-4.5833 49.9167 -3.5833000000000004 50.9167],0.601,-0.046,1.153,0.632,0.931,0.364,1.514,0.922,177.0,724.0
2015-05-13,Plymouth,England,-4.0833,50.4167,[-4.5833 49.9167 -3.5833000000000004 50.9167],0.546,0.086,1.131,0.625,0.859,0.345,1.458,0.891,180.0,720.0
2015-05-14,Plymouth,England,-4.0833,50.4167,[-4.5833 49.9167 -3.5833000000000004 50.9167],0.561,0.095,1.224,0.655,0.849,0.354,1.482,0.893,201.0,711.0
2015-05-15,Plymouth,England,-4.0833,50.4167,[-4.5833 49.9167 -3.5833000000000004 50.9167],0.561,0.101,1.224,0.664,0.858,0.323,1.477,0.893,191.0,726.0
2015-05-16,Plymouth,England,-4.0833,50.4167,[-4.5833 49.9167 -3.5833000000000004 50.9167],0.574,0.09,1.131,0.648,0.892,0.354,1.512,0.931,210.0,734.0
2015-05-17,Plymouth,England,-4.0833,50.4167,[-4.5833 49.9167 -3.5833000000000004 50.9167],0.544,0.031,1.131,0.629,0.894,0.349,1.527,0.938,183.0,757.0
2015-05-18,Plymouth,England,-4.0833,50.4167,[-4.5833 49.9167 -3.5833000000000004 50.9167],0.544,0.031,1.131,0.629,0.914,0.354,1.524,0.95,183.0,720.0
2015-05-19,Plymouth,England,-4.0833,50.4167,[-4.5833 49.9167 -3.5833000000000004 50.9167],0.61,0.031,1.302,0.682,0.95,0.373,1.543,0.974,168.0,738.0
2015-05-20,Plymouth,England,-4.0833,50.4167,[-4.5833 49.9167 -3.5833000000000004 50.9167],0.574,0.062,1.269,0.684,0.933,0.375,1.532,0.967,162.0,743.0
2015-05-21,Plymouth,England,-4.0833,50.4167,[-4.5833 49.9167 -3.5833000000000004 50.9167],0.561,0.022,1.251,0.639,0.853,0.334,1.461,0.913,181.0,761.0
2015-05-22,Plymouth,England,-4.0833,50.4167,[-4.5833 49.9167 -3.5833000000000004 50.9167],0.439,-0.063,1.101,0.544,0.818,0.309,1.413,0.877,158.0,796.0
2015-05-23,Plymouth,England,-4.0833,50.4167,[-4.5833 49.9167 -3.5833000000000004 50.9167],0.546,0.031,1.101,0.577,0.89,0.372,1.436,0.914,160.0,825.0
2015-05-24,Plymouth,England,-4.0833,50.4167,[-4.5833 49.9167 -3.5833000000000004 50.9167],0.604,0.168,1.131,0.651,0.924,0.42,1.468,0.955,121.0,821.0
2015-05-25,Plymouth,England,-4.0833,50.4167,[-4.5833 49.9167 -3.5833000000000004 50.9167],0.604,0.168,1.131,0.651,0.919,0.393,1.476,0.939,121.0,804.0
2015-05-26,Plymouth,England,-4.0833,50.4167,[-4.5833 49.9167 -3.5833000000000004 50.9167],0.427,0.168,1.101,0.593,0.882,0.391,1.472,0.925,100.0,785.0
2015-05-27,Plymouth,England,-4.0833,50.4167,[-4.5833 49.9167 -3.5833000000000004 50.9167],0.537,0.031,1.162,0.597,0.851,0.339,1.448,0.905,119.0,788.0
2015-05-28,Plymouth,England,-4.0833,50.4167,[-4.5833 49.9167 -3.5833000000000004 50.9167],0.593,-0.042,1.126,0.554,0.894,0.396,1.459,0.937,108.0,807.0
2015-05-29,Plymouth,England,-4.0833,50.4167,[-4.5833 49.9167 -3.5833000000000004 50.9167],0.537,-0.205,1.101,0.51,0.933,0.399,1.505,0.966,83.0,807.0
2015-05-30,Plymouth,England,-4.0833,50.4167,[-4.5833 49.9167 -3.5833000000000004 50.9167],0.293,-0.08,1.004,0.415,0.897,0.396,1.457,0.944,119.0,810.0
2015-05-31,Plymouth,England,-4.0833,50.4167,[-4.5833 49.9167 -3.5833000000000004 50.9167],0.314,-0.042,0.904,0.445,0.851,0.395,1.365,0.886,117.0,824.0
2015-06-01,Plymouth,England,-4.0833,50.4167,[-4.5833 49.9167 -3.5833000000000004 50.9167],0.566,0.142,1.253,0.705,0.847,0.379,1.443,0.919,154.0,830.0
2015-06-02,Plymouth,England,-4.0833,50.4167,[-4.5833 49.9167 -3.5833000000000004 50.9167],0.566,0.142,1.253,0.705,0.845,0.354,1.45,0.919,154.0,894.0
2015-06-03,Plymouth,England,-4.0833,50.4167,[-4.5833 49.9167 -3.5833000000000004 50.9167],0.884,0.207,1.633,0.991,0.956,0.331,1.58,0.99,188.0,903.0
2015-06-04,Plymouth,England,-4.0833,50.4167,[-4.5833 49.9167 -3.5833000000000004 50.9167],0.867,0.207,1.734,1.013,0.92,0.354,1.553,0.976,174.0,924.0
2015-06-05,Plymouth,England,-4.0833,50.4167,[-4.5833 49.9167 -3.5833000000000004 50.9167],0.901,0.255,1.781,1.083,0.965,0.33,1.589,1.007,151.0,916.0
2015-06-06,Plymouth,England,-4.0833,50.4167,[-4.5833 49.9167 -3.5833000000000004 50.9167],0.904,0.255,1.781,1.089,0.96,0.355,1.62,1.021,164.0,886.0
2015-06-07,Plymouth,England,-4.0833,50.4167,[-4.5833 49.9167 -3.5833000000000004 50.9167],0.912,0.291,1.77,1.111,0.897,0.348,1.548,0.979,164.0,856.0